This is the latest recevied weather packets stored in our database for station/object N4HAC. If no packets are shown the sender has not sent any weather packets the latest 10 day(s).
| Time | Temp. | Humidity | Pressure | Rain* | Wind** | Luminosity | Snow |
|---|---|---|---|---|---|---|---|
| 1777991021 | 23.89° C | 48% | 1006.5 hPa | 0 mm | - | 674 W/m² | - |
| 1777990718 | 23.33° C | 46% | 1006.5 hPa | 0 mm | - | 666 W/m² | - |
| 1777990416 | 22.78° C | 52% | 1006.6 hPa | 0 mm | - | 653 W/m² | - |
| 1777989809 | 21.67° C | 55% | 1006.9 hPa | 0 mm | - | 630 W/m² | - |
| 1777989506 | 21.11° C | 55% | 1006.9 hPa | 0 mm | - | 616 W/m² | - |
| 1777989202 | 21.67° C | 56% | 1007 hPa | 0 mm | - | 591 W/m² | - |
| 1777988898 | 21.67° C | 57% | 1006.9 hPa | 0 mm | - | 589 W/m² | - |
| 1777988595 | 21.67° C | 57% | 1007 hPa | 0 mm | - | 575 W/m² | - |
| 1777988292 | 20.56° C | 59% | 1006.9 hPa | 0 mm | - | 558 W/m² | - |
| 1777987989 | 20° C | 60% | 1006.9 hPa | 0 mm | - | 541 W/m² | - |
| 1777987684 | 19.44° C | 60% | 1007 hPa | 0 mm | - | 524 W/m² | - |
| 1777987381 | 19.44° C | 60% | 1007 hPa | 0 mm | - | 508 W/m² | - |
| 1777987079 | 20° C | 62% | 1007.1 hPa | 0 mm | - | 493 W/m² | - |
| 1777986776 | 19.44° C | 65% | 1006.9 hPa | 0 mm | - | 474 W/m² | - |
| 1777986474 | 19.44° C | 63% | 1006.9 hPa | 0 mm | - | 452 W/m² | - |
| 1777986172 | 19.44° C | 65% | 1006.9 hPa | 0 mm | - | 424 W/m² | - |
| 1777985869 | 19.44° C | 59% | 1007 hPa | 0 mm | - | 394 W/m² | - |
| 1777985566 | 19.44° C | 63% | 1007 hPa | 0 mm | - | 362 W/m² | - |
| 1777985262 | 18.89° C | 63% | 1007.1 hPa | 0 mm | - | 336 W/m² | - |
| 1777984959 | 18.33° C | 64% | 1007.3 hPa | 0 mm | - | 335 W/m² | - |
| 1777984655 | 17.78° C | 67% | 1007.2 hPa | 0 mm | - | 300 W/m² | - |
| 1777984352 | 17.78° C | 66% | 1007.3 hPa | 0 mm | - | 284 W/m² | - |
| 1777984048 | 17.78° C | 71% | 1007.6 hPa | 0 mm | - | 273 W/m² | - |
| 1777983746 | 17.78° C | 68% | 1007.3 hPa | 0 mm | - | 269 W/m² | - |
| 1777983442 | 17.78° C | 69% | 1007.6 hPa | 0 mm | - | 282 W/m² | - |
* Rain latest hour (hover to see other rain measurements)
** Current wind speed in m/s (hover to see current wind gust speed)